STARLINK-5862 (55920 NORAD) Tracking and Keplerian Element Data

This shows tracking and keplerian element data for the satellite.

Feedback or suggestion? Click here.




ElementValue
Catalog55920
NameSTARLINK-5862
Epoch Orbit839
Epoch Day126.86911862
Epoch Year2023
RAAN40.2176
Inclination70.0025
Eccentricity0.0003144
Argument of Perigee258.4527
Mean Anonmoly101.6316
Mean Motion15.69931351
Decay Rate1.668E-05
L11 55920U 23037G 23126.86911862 .00001668 00000+0 15635-4 0 9995
L22 55920 70.0025 40.2176 0003144 258.4527 101.6316 15.69931351 8393



Live tracking and technical data element details for STARLINK-5862 (NORAD 55920). STARLINK-5862 can be tracked NOW for your location showing map with azimuth and elevation plus other details from your city location.







IsCatalogInMostPopularTable: catalog: 55920, numindb: 8
Update: records affected: 1



GetName: 55920 STARLINK-5862

Hit Count: updated at: Tue, 06 Jun 2023 03:03:21 GMT